[[{"header":{"parameterUnit":"m.s-1","parameterCategory":1,"la1":30.2991,"la2":30.254,"lo1":-89.0895,"lo2":-89.0444,"dy":0.0017,"dx":0.0017,"nx":28,"ny":28,"refTime":"2024-08-20T21:00:00:Z","depth":0,"parameterNumber":2,"parameterNumberName":"U-component_of_WINDS"},"data":[0,0,0,0,0,0,0,0,0,0,0,0,0,0,0,0,0,0,0,0,0,0,0,0,0,0,0,0,0,0,0,0,0,0,0,0,0,0,0,0,0,0,0,0,0,0,0,0,0,0,0,0,0,0,0,0,0,0,-0.6689,-0.6688,0,-0.6639,-0.6639,-0.6638,-0.6538,-0.6536,-0.6534,-0.6532,-0.6485,-0.6485,-0.6486,0,0,0,0,0,0,0,0,0,0,0,0,0,-0.6699,-0.6699,-0.6689,-0.6688,-0.6687,-0.6639,-0.6639,-0.6638,-0.6538,-0.6536,-0.6534,-0.6531,-0.6485,-0.6485,-0.6486,0,0,0,0,0,0,0,0,0,0,0,0,0,-0.6677,-0.6699,-0.6689,-0.6632,-0.6626,-0.6639,-0.6639,-0.6638,-0.6539,-0.6536,-0.6533,-0.653,-0.6484,-0.6485,-0.6486,-0.6552,0,0,-0.6489,-0.6489,0,0,0,0,0,0,0,0,-0.6678,-0.6676,-0.6641,-0.6636,-0.6629,-0.6592,-0.6625,-0.6609,-0.654,-0.6572,-0.6532,-0.6529,-0.6523,-0.6521,-0.6518,-0.655,-0.6548,-0.6489,-0.649,-0.649,-0.649,0,0,0,0,0,0,0,-0.668,-0.6678,-0.6669,-0.664,-0.6634,-0.661,-0.6603,-0.6621,-0.6565,-0.6569,-0.6562,-0.6557,-0.6519,-0.6517,-0.6516,-0.6547,-0.6489,-0.649,-0.649,-0.6491,-0.663,-0.6633,0,0,0,0,0,0,-0.6689,-0.668,-0.6671,-0.6668,-0.6647,-0.6612,-0.6604,-0.6607,-0.6565,-0.6555,-0.656,-0.6553,-0.6517,-0.6515,-0.6514,-0.6589,-0.649,-0.6491,-0.6491,-0.6627,-0.6631,-0.6634,0,0,0,0,0,0,-0.669,-0.6689,-0.6673,-0.6672,-0.6668,-0.6615,-0.6618,-0.6608,-0.6605,-0.6557,-0.6547,-0.6568,-0.6515,-0.6513,-0.6543,-0.6586,-0.6491,-0.6492,-0.6623,-0.6628,-0.6633,-0.6739,0,0,0,0,0,0,-0.669,-0.669,-0.6714,-0.6673,-0.6668,-0.6702,-0.6621,-0.6609,-0.6607,-0.6597,-0.6562,-0.6554,-0.6512,-0.6542,-0.6544,-0.6586,-0.6493,-0.6619,-0.6626,-0.6631,-0.6732,-0.6747,-0.676,0,0,0,0,0,-0.6691,-0.6746,-0.6716,-0.6715,-0.6697,-0.6705,-0.6702,-0.6652,-0.6611,-0.6635,-0.6604,-0.6555,-0.6581,-0.6546,-0.6547,-0.659,-0.6617,-0.6624,-0.6631,-0.6725,-0.6744,-0.676,0,0,0,0,0,0,-0.6795,-0.674,-0.6705,-0.6749,-0.6732,-0.6688,-0.6717,-0.6674,-0.6669,-0.6661,-0.66,-0.6593,-0.6632,-0.6613,-0.6576,-0.6651,-0.6591,-0.6599,-0.6662,-0.668,-0.6694,-0.6698,-0.6494,0,0,0,0,0,-0.6823,-0.6833,-0.6785,-0.6828,-0.6821,-0.6771,-0.6772,-0.6735,-0.6716,-0.6709,-0.668,-0.6664,-0.6668,-0.6672,-0.6674,-0.6728,-0.6719,-0.6757,-0.6772,-0.6784,-0.6792,-0.682,-0.6837,-0.6658,-0.6658,-0.6658,0,0,-0.6881,-0.6852,-0.6863,-0.6848,-0.6831,-0.6844,-0.6765,-0.6782,-0.6792,-0.6711,-0.6738,-0.6717,-0.6695,-0.6738,-0.6755,-0.6723,-0.6839,-0.6793,-0.6802,-0.6804,-0.6829,-0.6846,-0.6861,-0.6663,-0.6662,-0.6661,0,0,-0.6994,-0.6972,-0.7006,-0.699,-0.6964,-0.693,-0.6939,-0.6901,-0.6883,-0.6909,-0.6849,-0.6859,-0.6868,-0.6855,-0.6849,-0.6956,-0.6912,-0.6958,-0.7034,-0.7062,-0.7076,-0.7088,-0.7128,-0.7143,-0.6966,-0.6966,-0.6966,0,-0.707,-0.7086,-0.703,-0.705,-0.7046,-0.6972,-0.7007,-0.6994,-0.6971,-0.697,-0.6935,-0.6944,-0.6924,-0.6963,-0.6989,-0.6986,-0.6995,-0.6963,-0.7078,-0.709,-0.71,-0.7138,-0.7153,-0.6972,-0.6971,-0.6971,-0.697,0,-0.7181,-0.7194,-0.7224,-0.7203,-0.7201,-0.7229,-0.7178,-0.7183,-0.7146,-0.7116,-0.7144,-0.7117,-0.7112,-0.7117,-0.7082,-0.7152,-0.7133,-0.7089,-0.7027,-0.7124,-0.7159,-0.7172,-0.6981,-0.6979,-0.6977,-0.6975,0,0,-0.7361,-0.7306,-0.7319,-0.7308,-0.7274,-0.7283,-0.7307,-0.7301,-0.7308,-0.7294,-0.7314,-0.7322,-0.728,-0.7274,-0.7236,-0.7261,-0.7349,-0.7213,-0.7212,-0.7241,-0.7426,-0.7462,-0.7479,-0.7318,-0.732,-0.7322,-0.7429,0,-0.7467,-0.7505,-0.7455,-0.7505,-0.7516,-0.7445,-0.7466,-0.7448,-0.7421,-0.7427,-0.7396,-0.7404,-0.7347,-0.7343,-0.7364,-0.7334,-0.7386,-0.7325,-0.7338,-0.7339,-0.7348,-0.7496,-0.7534,-0.7636,-0.7442,-0.7444,-0.7445,0,-0.7597,-0.7589,-0.764,-0.7602,-0.7605,-0.7625,-0.7615,-0.7621,-0.7599,-0.7577,-0.7571,-0.7524,-0.7546,-0.7485,-0.7515,-0.7475,-0.7477,-0.7463,-0.7465,-0.7467,-0.74,-0.7504,-0.7667,-0.7683,-0.7465,-0.7464,-0.7462,0,-0.7725,-0.7726,-0.7757,-0.7749,-0.7706,-0.7722,-0.7705,-0.768,-0.7679,-0.7671,-0.767,-0.7665,-0.7663,-0.766,-0.7614,-0.7573,-0.7651,-0.7585,-0.7635,-0.7636,-0.7656,-0.7656,-0.7824,-0.7654,-0.7654,-0.7654,-0.7653,0,-0.7851,-0.7885,-0.7813,-0.7833,-0.7869,-0.7811,-0.7849,-0.7824,-0.7802,-0.7816,-0.7754,-0.7769,-0.7706,-0.7714,-0.7678,-0.771,-0.7709,-0.7693,-0.7683,-0.77,-0.7702,-0.7702,-0.7694,-0.7658,-0.7657,-0.7656,-0.7655,0,-0.8001,-0.7954,-0.7983,-0.7939,-0.7929,-0.7958,-0.7921,-0.7937,-0.7904,-0.7923,-0.7924,-0.7874,-0.788,-0.7833,-0.783,-0.7806,-0.7856,-0.7833,-0.7863,-0.7857,-0.791,-0.7906,-0.8085,-0.8107,-0.7922,-0.7923,-0.7925,0,-0.8086,-0.811,-0.8068,-0.8073,-0.8058,-0.8066,-0.8065,-0.8008,-0.801,-0.7986,-0.8006,-0.8007,-0.8005,-0.8018,-0.7982,-0.798,-0.7958,-0.8021,-0.7957,-0.7973,-0.7961,-0.7961,-0.7964,-0.8035,-0.8037,-0.8039,-0.8041,0,-0.8241,-0.8216,-0.8217,-0.8209,-0.8209,-0.8201,-0.8189,-0.8196,-0.8134,-0.8139,-0.8144,-0.8142,-0.8139,-0.8142,-0.8132,-0.8115,-0.8069,-0.806,-0.8072,-0.809,-0.8108,-0.8101,-0.7902,-0.8057,-0.8055,-0.8054,-0.8053,-0.8053,-0.8362,-0.8381,-0.8354,-0.8357,-0.8341,-0.8331,-0.8344,-0.8313,-0.8316,-0.8309,-0.8274,-0.8286,-0.8263,-0.8246,-0.8233,-0.8242,-0.8212,-0.8229,-0.8233,-0.8239,-0.8249,-0.8104,-0.824,-0.8239,-0.8239,-0.8238,-0.8238,0,-0.8516,-0.8495,-0.8498,-0.8482,-0.8484,-0.8438,-0.8421,-0.8427,-0.8438,-0.842,-0.8418,-0.8425,-0.8426,-0.839,-0.8387,-0.8401,-0.838,-0.8403,-0.8402,-0.84,-0.8275,-0.8266,-0.842,-0.842,-0.842,-0.842,-0.842,-0.842,-0.8596,-0.8626,-0.8599,-0.862,-0.8599,-0.8609,-0.8604,-0.8594,-0.858,-0.8589,-0.859,-0.8566,-0.8541,-0.8535,-0.8535,-0.8524,-0.8527,-0.8558,-0.854,-0.8426,-0.8408,-0.8391,-0.8383,-0.8558,-0.8559,-0.8664,-0.8665,-0.8665]},{"header":{"parameterUnit":"m.s-1","parameterCategory":1,"la1":30.2991,"la2":30.254,"lo1":-89.0895,"lo2":-89.0444,"dy":0.0017,"dx":0.0017,"nx":28,"ny":28,"refTime":"2024-08-20T21:00:00:Z","depth":0,"parameterNumber":3,"parameterNumberName":"V-component_of_WINDS"},"data":[0,0,0,0,0,0,0,0,0,0,0,0,0,0,0,0,0,0,0,0,0,0,0,0,0,0,0,0,0,0,0,0,0,0,0,0,0,0,0,0,0,0,0,0,0,0,0,0,0,0,0,0,0,0,0,0,0,0,-2.0032,-2.0032,0,-2.0063,-2.0063,-2.0063,-2.0078,-2.0078,-2.0078,-2.0078,-2.0107,-2.0108,-2.0109,0,0,0,0,0,0,0,0,0,0,0,0,0,-1.9984,-1.9985,-2.0032,-2.0032,-2.0033,-2.0063,-2.0063,-2.0064,-2.0078,-2.0078,-2.0078,-2.0078,-2.0107,-2.0108,-2.0109,0,0,0,0,0,0,0,0,0,0,0,0,0,-2.0009,-1.9985,-2.0032,-2.0044,-2.0045,-2.0063,-2.0063,-2.0064,-2.0078,-2.0078,-2.0078,-2.0078,-2.0106,-2.0108,-2.0109,-2.0116,0,0,-2.0112,-2.0113,0,0,0,0,0,0,0,0,-2.0007,-2.001,-2.0041,-2.0043,-2.0044,-2.0067,-2.0057,-2.0081,-2.0078,-2.0066,-2.0078,-2.0078,-2.0093,-2.0096,-2.0101,-2.0117,-2.0119,-2.0112,-2.0113,-2.0114,-2.0114,0,0,0,0,0,0,0,-2.0005,-2.0009,-2.0044,-2.0042,-2.0044,-2.0047,-2.005,-2.0061,-2.0079,-2.0067,-2.0068,-2.0071,-2.0094,-2.01,-2.0102,-2.0119,-2.0112,-2.0113,-2.0114,-2.0115,-2.0144,-2.0144,0,0,0,0,0,0,-2.0002,-2.0008,-2.0043,-2.0045,-2.0026,-2.0048,-2.0052,-2.006,-2.0079,-2.0082,-2.0071,-2.0072,-2.0098,-2.0101,-2.0103,-2.0115,-2.0114,-2.0115,-2.0115,-2.0144,-2.0144,-2.0144,0,0,0,0,0,0,-2.0001,-2.0005,-2.0042,-2.0027,-2.0032,-2.0049,-2.0057,-2.006,-2.0066,-2.0083,-2.0086,-2.0075,-2.0098,-2.0102,-2.0113,-2.0116,-2.0115,-2.0116,-2.0144,-2.0144,-2.0144,-2.0136,0,0,0,0,0,0,-2.0,-2.0005,-2.0008,-2.0027,-2.0032,-2.0052,-2.0057,-2.0061,-2.0069,-2.007,-2.0086,-2.0089,-2.0099,-2.0112,-2.0115,-2.0117,-2.0117,-2.0144,-2.0144,-2.0144,-2.0136,-2.0136,-2.0136,0,0,0,0,0,-1.9998,-2.0003,-2.0008,-2.0012,-2.0037,-2.0052,-2.0055,-2.0067,-2.0069,-2.0072,-2.0083,-2.0088,-2.0115,-2.0113,-2.0116,-2.0119,-2.0144,-2.0144,-2.0144,-2.0136,-2.0136,-2.0136,0,0,0,0,0,0,-1.9982,-2.0006,-2.0011,-2.0023,-2.0036,-2.0054,-2.0059,-2.0066,-2.0077,-2.0078,-2.0091,-2.0094,-2.0105,-2.0113,-2.011,-2.0128,-2.013,-2.0131,-2.0123,-2.0123,-2.0122,-2.012,-2.0118,0,0,0,0,0,-1.9981,-1.9992,-2.0011,-2.0019,-2.0026,-2.0041,-2.0048,-2.0056,-2.007,-2.0075,-2.0086,-2.0098,-2.0109,-2.0116,-2.0127,-2.0137,-2.0142,-2.0141,-2.0141,-2.0141,-2.0142,-2.0149,-2.015,-2.0145,-2.0145,-2.0145,0,0,-1.9976,-1.9991,-1.9996,-2.0017,-2.0028,-2.0039,-2.0045,-2.0056,-2.0065,-2.0076,-2.0089,-2.0097,-2.0112,-2.0123,-2.0129,-2.013,-2.0144,-2.0141,-2.0141,-2.0142,-2.0149,-2.015,-2.015,-2.0145,-2.0145,-2.0145,0,0,-1.9975,-1.9986,-1.9996,-2.0007,-2.0024,-2.0034,-2.0037,-2.0055,-2.0062,-2.0075,-2.0084,-2.0094,-2.0113,-2.0123,-2.0131,-2.0135,-2.0141,-2.0138,-2.0137,-2.0144,-2.0145,-2.0145,-2.0148,-2.0149,-2.0139,-2.0139,-2.0139,0,-1.9967,-1.9985,-1.9999,-2.0011,-2.002,-2.0032,-2.0042,-2.0051,-2.007,-2.0076,-2.0078,-2.0103,-2.0113,-2.0128,-2.013,-2.0135,-2.0138,-2.0137,-2.0144,-2.0144,-2.0145,-2.0148,-2.0149,-2.0139,-2.0139,-2.0139,-2.0139,0,-1.9976,-1.9988,-1.9994,-2.0014,-2.0024,-2.0034,-2.0049,-2.0057,-2.0065,-2.0075,-2.0089,-2.0102,-2.0117,-2.0121,-2.0128,-2.0137,-2.0138,-2.0141,-2.0143,-2.0145,-2.0148,-2.0149,-2.0138,-2.0138,-2.0138,-2.0138,0,0,-1.9965,-1.9994,-1.9996,-2.0007,-2.0027,-2.0036,-2.0048,-2.0064,-2.0071,-2.0084,-2.0094,-2.011,-2.0114,-2.0123,-2.0131,-2.0137,-2.0142,-2.014,-2.0141,-2.0141,-2.0155,-2.0153,-2.0154,-2.0146,-2.0146,-2.0147,-2.0154,0,-1.9967,-1.9989,-2.0003,-2.0019,-2.0032,-2.0044,-2.0054,-2.0068,-2.0078,-2.0089,-2.01,-2.0112,-2.0116,-2.0122,-2.0128,-2.014,-2.0145,-2.0139,-2.0156,-2.0156,-2.0153,-2.0156,-2.0153,-2.016,-2.0155,-2.0156,-2.0156,0,-1.9972,-1.9988,-2.0006,-2.0027,-2.0033,-2.0041,-2.0058,-2.0069,-2.0085,-2.0092,-2.0103,-2.0111,-2.0124,-2.0125,-2.0142,-2.0138,-2.0146,-2.0153,-2.0153,-2.0156,-2.0157,-2.0159,-2.0162,-2.0163,-2.0157,-2.0157,-2.0157,0,-1.9964,-1.9989,-2.0004,-2.0012,-2.0036,-2.0042,-2.0053,-2.0069,-2.0078,-2.0092,-2.0099,-2.0113,-2.0122,-2.0133,-2.0145,-2.0145,-2.0162,-2.0164,-2.0169,-2.0168,-2.0172,-2.0172,-2.0177,-2.0175,-2.0175,-2.0175,-2.0175,0,-1.9966,-1.9977,-2.0001,-2.001,-2.0023,-2.0038,-2.005,-2.0061,-2.0076,-2.0087,-2.0098,-2.0108,-2.0124,-2.0136,-2.0146,-2.016,-2.0163,-2.0169,-2.0172,-2.0169,-2.0168,-2.0174,-2.0174,-2.0175,-2.0175,-2.0175,-2.0175,0,-1.9959,-1.9975,-1.9993,-2.0015,-2.0021,-2.003,-2.0049,-2.0058,-2.007,-2.0084,-2.0088,-2.0106,-2.0121,-2.0135,-2.0154,-2.0161,-2.0175,-2.0178,-2.017,-2.0172,-2.0177,-2.0176,-2.0187,-2.0189,-2.0185,-2.0185,-2.0185,0,-1.996,-1.9969,-1.9993,-2.0003,-2.0014,-2.0028,-2.0038,-2.0054,-2.0064,-2.0084,-2.0091,-2.0107,-2.0121,-2.0144,-2.0158,-2.0174,-2.0177,-2.018,-2.018,-2.0177,-2.0179,-2.0179,-2.018,-2.018,-2.018,-2.018,-2.018,0,-1.9959,-1.9968,-1.9983,-2.0001,-2.0014,-2.0029,-2.0044,-2.005,-2.0069,-2.008,-2.0096,-2.0107,-2.0128,-2.0144,-2.0162,-2.0171,-2.0179,-2.018,-2.0182,-2.018,-2.0175,-2.0179,-2.0171,-2.018,-2.018,-2.018,-2.018,-2.018,-1.9957,-1.9967,-1.9986,-2.0003,-2.0017,-2.0031,-2.0042,-2.0055,-2.007,-2.0089,-2.0097,-2.0115,-2.0131,-2.0155,-2.0165,-2.0179,-2.018,-2.0183,-2.0184,-2.0184,-2.0185,-2.0173,-2.0182,-2.0182,-2.0182,-2.0182,-2.0182,0,-1.9958,-1.9972,-1.9988,-2.001,-2.0023,-2.0031,-2.0048,-2.0059,-2.0074,-2.009,-2.0104,-2.0124,-2.014,-2.0156,-2.0173,-2.0181,-2.0184,-2.0184,-2.0184,-2.0187,-2.0182,-2.0179,-2.0181,-2.0181,-2.0181,-2.0181,-2.0181,-2.0181,-1.9961,-1.9978,-1.9989,-2.0013,-2.0026,-2.0045,-2.0054,-2.0068,-2.008,-2.0102,-2.0117,-2.0128,-2.0144,-2.0162,-2.0177,-2.0182,-2.0188,-2.0187,-2.0192,-2.0187,-2.0187,-2.0187,-2.0184,-2.0188,-2.0188,-2.0197,-2.0197,-2.0197]}]]